EW6338 Weather Reports


Display with metric or nautical units.
time (UTC)temp
F
wind
direction
speed
MPH
gust
MPH
rain 1hr
in
rain 24hr
in
rain mn
in
humidity
%
barometer
mb
20180123015813 34 34 0.0 1.0 0.02 0.08 0.08 92 1023.2
20180123014316 33 41 0.0 2.0 0.02 0.07 0.07 92 1023.3
20180123012812 33 70 0.0 2.0 0.01 0.06 0.06 92 1023.4
20180123011312 33 34 0.0 5.0 0.01 0.06 0.06 92 1023.3
20180123005815 33 50 3.0 7.0 0.01 0.06 0.06 92 1023.3
20180123004311 32 32 3.0 6.0 0.00 0.05 0.05 92 1023.9
20180123002810 32 20 1.0 6.0 0.00 0.05 0.05 92 1023.9
20180123001310 32 28 2.0 8.0 0.01 0.05 0.05 92 1024.0
20180122235811 32 30 2.0 8.0 0.01 0.05 0.05 92 1024.4
20180122234308 32 34 2.0 6.0 0.01 0.05 0.05 92 1024.8
20180122232809 32 35 4.0 10.0 0.02 0.05 0.05 92 1024.8
20180122231309 32 30 2.0 9.0 0.01 0.04 0.04 92 1024.9
20180122225810 32 26 3.0 7.0 0.01 0.04 0.04 92 1024.9
20180122224307 32 34 2.0 9.0 0.01 0.04 0.04 92 1024.8
20180122222904 32 33 1.0 8.0 0.00 0.03 0.03 92 1024.8
20180122221304 32 27 2.0 6.0 0.00 0.03 0.03 92 1024.7
20180122215807 32 32 2.0 6.0 0.00 0.03 0.03 92 1024.8
20180122214301 32 36 3.0 8.0 0.00 0.03 0.03 92 1024.9
20180122212800 32 15 5.0 8.0 0.00 0.03 0.03 92 1025.1
20180122211302 32 32 2.0 8.0 0.00 0.03 0.03 92 1025.1
20180122205759 32 28 1.0 7.0 0.00 0.03 0.03 92 1024.9
20180122204258 32 49 1.0 8.0 0.00 0.03 0.03 92 1024.7
20180122202756 32 25 3.0 9.0 0.01 0.03 0.03 92 1024.8
20180122201259 32 27 3.0 7.0 0.01 0.03 0.03 92 1024.8
20180122195757 32 26 3.0 9.0 0.01 0.03 0.03 92 1024.9
20180122194255 32 26 2.0 6.0 0.01 0.03 0.03 92 1025.0
20180122192755 32 30 1.0 5.0 0.00 0.02 0.02 92 1025.2
20180122191255 33 23 4.0 8.0 0.00 0.02 0.02 92 1025.3
20180122185750 33 33 3.0 12.0 0.00 0.02 0.02 92 1024.7
20180122184250 34 100 3.0 11.0 0.00 0.02 0.02 92 1024.1
20180122182750 35 36 3.0 6.0 0.00 0.02 0.02 92 1024.4
20180122181249 37 22 2.0 8.0 0.00 0.02 0.02 92 1024.1
20180122175748 37 34 0.0 1.0 0.00 0.02 0.02 92 1024.5
20180122174243 36 1 0.0 0.0 0.01 0.02 0.02 92 1024.5
20180122172746 36 1 0.0 0.0 0.01 0.02 0.02 92 1024.6
20180122171246 35 1 0.0 0.0 0.01 0.02 0.02 92 1024.6
20180122165744 35 1 0.0 0.0 0.01 0.02 0.02 92 1024.6
20180122164244 35 1 0.0 0.0 0.00 0.01 0.01 92 1024.2
20180122162742 35 1 0.0 0.0 0.00 0.01 0.01 92 1024.8
20180122161242 35 1 0.0 0.0 0.00 0.01 0.01 92 1024.9
20180122155737 35 1 0.0 0.0 0.00 0.01 0.01 92 1025.1
20180122154240 35 1 0.0 0.0 0.00 0.01 0.01 92 1025.3
20180122152735 35 1 0.0 0.0 0.01 0.01 0.01 92 1025.2
20180122151235 34 1 0.0 0.0 0.01 0.01 0.01 92 1025.2
20180122145735 34 1 0.0 0.0 0.01 0.01 0.01 92 1025.2
20180122144231 34 1 0.0 0.0 0.01 0.01 0.01 92 1025.1
20180122142730 34 359 0.0 1.0 0.00 0.00 0.00 92 1025.0
20180122141229 33 2 0.0 1.0 0.00 0.00 0.00 92 1024.6
20180122135726 33 360 0.0 1.0 0.00 0.00 0.00 92 1024.3
20180122134223 33 195 0.0 0.0 0.00 0.00 0.00 92 1023.9
20180122132722 0 0.0 0.0 0.00 0.00 0.00 1023.9
20180122131219 0 0.0 0.0 0.00 0.00 0.00 1023.8
20180122125711 0 0.0 0.0 0.00 0.00 0.00 1023.7
20180122124207 0 0.0 0.0 0.00 0.00 0.00 1023.4
20180122122702 0 0.0 0.0 0.00 0.00 0.00 1023.2
20180122121200 0 0.0 0.0 0.00 0.00 0.00 1022.9
20180122115657 0 0.0 0.0 0.00 0.00 0.00 1022.6
20180122114149 0 0.0 0.0 0.00 0.00 0.00 1022.5
20180122112644 0 0.0 0.0 0.00 0.00 0.00 1022.4
20180122111146 0 0.0 0.0 0.00 0.00 0.00 1022.2
20180122105635 0 0.0 0.0 0.00 0.00 0.00 1022.1
20180122104131 0 0.0 0.0 0.00 0.00 0.00 1021.5
20180122102626 0 0.0 0.0 0.00 0.00 0.00 1021.3
20180122101127 0 0.0 0.0 0.00 0.00 0.00 1021.6
20180122095619 0 0.0 0.0 0.00 0.00 0.00 1021.7
20180122094116 0 0.0 0.0 0.00 0.00 0.00 1021.8
20180122092613 0 0.0 0.0 0.00 0.00 0.00 1021.7
20180122091104 0 0.0 0.0 0.00 0.00 0.00 1021.9
20180122085604 0 0.0 0.0 0.00 0.00 0.00 1021.6
20180122084059 0 0.0 0.0 0.00 0.00 0.00 1021.6
20180122082554 0 0.0 0.0 0.00 0.00 0.00 1021.5
20180122081048 30 247 0.0 0.0 0.00 0.00 0.00 90 1021.4
20180122075548 30 251 0.0 0.0 0.00 0.00 0.00 91 1021.3
20180122074045 30 251 0.0 0.0 0.00 0.00 0.00 90 1021.3
20180122072544 30 251 0.0 0.0 0.00 0.00 0.00 91 1021.2
20180122071045 30 117 0.0 0.0 0.00 0.00 0.00 91 1021.3
20180122065541 30 116 0.0 0.0 0.00 0.00 0.00 91 1021.2
20180122064043 29 116 0.0 0.0 0.00 0.00 0.00 91 1021.1
20180122062540 29 116 0.0 0.0 0.00 0.00 0.00 92 1021.0
20180122061035 28 117 0.0 0.0 0.00 0.00 0.00 92 1021.0
20180122055538 28 116 0.0 0.0 0.00 0.00 0.00 92 1020.9
20180122054032 28 116 0.0 0.0 0.00 0.00 0.00 91 1021.2
20180122052531 28 116 0.0 0.0 0.00 0.00 0.00 92 1021.2
20180122051028 28 116 0.0 0.0 0.00 0.00 0.00 91 1021.4
20180122045526 28 117 0.0 0.0 0.00 0.00 0.00 91 1021.4
20180122044024 28 117 0.0 0.0 0.00 0.00 0.00 91 1021.4
20180122042524 29 116 0.0 0.0 0.00 0.00 0.00 91 1021.3
20180122041022 28 116 0.0 0.0 0.00 0.00 0.00 91 1021.3
20180122035521 29 116 0.0 0.0 0.00 0.00 0.00 91 1021.3
20180122034026 29 117 0.0 0.0 0.00 0.00 0.00 90 1021.2
20180122032523 29 116 0.0 0.0 0.00 0.00 0.00 90 1021.2
20180122031020 29 117 0.0 0.0 0.00 0.00 0.00 90 1021.3
20180122025518 29 116 0.0 0.0 0.00 0.00 0.00 90 1021.2
20180122024016 29 116 0.0 0.0 0.00 0.00 0.00 89 1021.2
20180122022519 30 116 0.0 0.0 0.00 0.00 0.00 89 1021.2
20180122021014 30 116 0.0 0.0 0.00 0.00 0.00 89 1021.2